Regional Weather Roundup
Issued by NWS

Home | Current Version | Previous Version | Graphics & Text | Print | Product List | Glossary Off
Versions: 1 2 3 4 5 6 7 8 9 10 11 12 13 14 15 16 17 18 19 20 21 22 23 24 25 26 27 28 29 30 31 32 33 34 35 36 37 38 39 40 41 42 43 44 45 46 47 48 49 50

000
ASUS43 KIND 070109
RWRIN

WEATHER ROUNDUP FOR INDIANA
NATIONAL WEATHER SERVICE INDIANAPOLIS IN
900 PM EDT FRI MAY 06 2016

NOTE: "FAIR" INDICATES FEW OR NO CLOUDS BELOW 12,000 FEET WITH NO
SIGNIFICANT WEATHER AND/OR OBSTRUCTIONS TO VISIBILITY.

* - STATION DOES NOT REPORT WEATHER SUCH AS PRECIPITATION OR FOG.

+ - STATION NOT QUALITY CONTROLLED BY THE NATIONAL WEATHER SERVICE.
    USE DATA WITH CAUTION...ESPECIALLY DEWPOINT AND RELATIVE
    HUMIDITY OBSERVATIONS.

INZ001>003-010>013-019-020-070200-
NORTHWEST INDIANA

CITY           SKY/WX    TMP DP  RH WIND       PRES   REMARKS
GARY /AIRPORT/ PTCLDY    79  55  44 W7        29.78F
KNOX *+        CLEAR     64  36  34 S7        29.80F
LA PORTE +     CLEAR     71  46  40 S3        29.81F
MICHIGAN CITY+ CLEAR     70  45  40 CALM      29.79F
MONTICELLO +   CLEAR     68  37  31 S7        29.82F
RENSSELAER +   CLEAR     68  43  40 S8        29.81F
VALPARAISO     CLEAR     69  46  43 S8        29.80F

$$

LMZ046-743>745-070200-
SOUTHERN LAKE MICHIGAN

STATION/POSITION TIME  TEMP    WIND        PRES    WAVE
                       AIR SEA DIR/SP/G            HT
                 (UTC) (F)     (DEG/KT/KT) (MB)    (FT)
BURNS HARBOR     0000   77     180/  8/ 11 1009.1F
MICHIGAN CITY    0000   75     130/ 10/ 11   N/A

$$

INZ004-005-014>016-021>024-070200-
NORTH CENTRAL INDIANA

CITY           SKY/WX    TMP DP  RH WIND       PRES   REMARKS
ELKHART        CLEAR     66  50  55 S3        29.82F
GOSHEN         PTCLDY    63  46  54 S6        29.82F
LOGANSPORT +   PTCLDY    63  52  67 S7        29.85S
PERU/GRISSOM   PTCLDY    63  49  60 S5        29.83F
ROCHESTER +    CLEAR     68  46  45 S3        29.83F
SOUTH BEND     CLEAR     67  44  43 S6        29.81F
WARSAW +       CLEAR     61  46  59 CALM      29.83F

$$

INZ006>009-017-018-025>027-070200-
NORTHEAST INDIANA

CITY           SKY/WX    TMP DP  RH WIND       PRES   REMARKS
ANGOLA *+        N/A     63  48  59 CALM      29.84F
AUBURN +       CLEAR     63  43  48 CALM      29.85S
FORT WAYNE     PTCLDY    63  46  54 SW5       29.85F
HUNTINGTON +   CLEAR    N/A N/A N/A CALM      29.85F

$$

INZ028-029-035-036-043>045-051>053-070200-
WEST CENTRAL INDIANA

CITY           SKY/WX    TMP DP  RH WIND       PRES   REMARKS
CRAWFORDSVL +  MOCLDY    63  47  56 S7        29.86F
GREENCASTLE +  PTCLDY    63  46  55 CALM      29.88F
LAFAYETTE      MOCLDY    68  43  40 S6        29.83F
TERRE HAUTE    PTCLDY    66  45  46 SW8       29.88F

$$

INZ030>032-037>040-046>048-054>057-064-065-070200-
CENTRAL INDIANA

CITY           SKY/WX    TMP DP  RH WIND       PRES   REMARKS
CP ATTERBURY + CLEAR     59  46  63 SW5       29.89F
COLUMBUS       CLEAR     63  46  55 SW5       29.89F
FISHERS *+     PTCLDY    63  48  59 CALM      29.87
FRANKFORT +      N/A     64  39  40 CALM      29.87F
GREENWOOD *+   PTCLDY    64  45  48 CALM      29.88
INDIANAPOLIS   MOCLDY    63  45  51 SW7       29.86F
-EAGLE CREEK   MOCLDY    65  45  48 CALM      29.86F
KOKOMO *+      PTCLDY    64  45  48 SW7       29.85S
MARION +       CLEAR     63  47  56 CALM      29.86F
SHELBYVILLE    CLEAR     65  45  48 SW5       29.87F
ZIONSVILLE +   PTCLDY    61  46  57 SW5       29.88F

$$

INZ033-034-041-042-049-050-058-059-070200-
EAST CENTRAL INDIANA

CITY           SKY/WX    TMP DP  RH WIND       PRES   REMARKS
MUNCIE         CLEAR     65  43  44 CALM      29.87F

$$

INZ060-061-067>069-081>083-085>088-070200-
SOUTHWEST INDIANA

CITY           SKY/WX    TMP DP  RH WIND       PRES   REMARKS
EVANSVILLE     PTCLDY    65  45  48 CALM      29.94F
HUNTINGBURG *+ PTCLDY    61  45  55 W7        29.93S
WASHINGTON +   PTCLDY    64  49  60 SW3       29.91F

$$

INZ062-063-066-070>080-084-089>092-070200-
SOUTH CENTRAL AND SOUTHEAST INDIANA

CITY           SKY/WX    TMP DP  RH WIND       PRES   REMARKS
BEDFORD +      CLEAR     64  52  63 W3        29.90F
BLOOMINGTON    PTCLDY    63  45  51 SW6       29.90F
MADISON *+     CLEAR     59  46  63 CALM      29.92S
NORTH VERNON + CLEAR     59  52  77 CALM      29.90
SEYMOUR +      CLEAR     64  45  48 CALM      29.90S

$$




USA.gov is the U.S. government's official web portal to all federal, state and local government web resources and services.